Regional Weather Roundup
Issued by NWS

Home | Current Version | Previous Version | Graphics & Text | Print | Product List | Glossary Off
Versions: 1 2 3 4 5 6 7 8 9 10 11 12 13 14 15 16 17 18 19 20 21 22 23 24 25 26 27 28 29 30 31 32 33 34 35 36 37 38 39 40 41 42 43 44 45 46 47 48 49 50

000
ASUS43 KTOP 030059
RWRKS

WEATHER ROUNDUP FOR KANSAS
NATIONAL WEATHER SERVICE GOODLAND KS
700 PM CST MON MAR 02 2015

NOTE:  "FAIR" INDICATES FEW OR NO CLOUDS BELOW 12,000 FEET WITH NO
SIGNIFICANT WEATHER AND/OR OBSTRUCTIONS TO VISIBILITY.

KSZ001>006-013>018-027>032-041>047-030200-
NORTHWEST KANSAS

CITY           SKY/WX    TMP DP  RH WIND       PRES   REMARKS
GOODLAND       CLOUDY    30  29  96 S23       29.74F FOG     WCI  17
HAYS           CLOUDY    30  16  55 S15       29.97S WCI  19
HILL CITY      CLOUDY    32  21  64 S14G21    29.92F WCI  22
RUSSELL        CLOUDY    31  21  66 S18       29.97F WCI  19
$$

KSZ061>065-074>080-084>089-030200-
SOUTHWEST KANSAS

CITY           SKY/WX    TMP DP  RH WIND       PRES   REMARKS
DODGE CITY     CLOUDY    31  24  75 S22G29    29.92F WCI  18
ELKHART          N/A     36  25  65 S22         N/A  WCI  25
GARDEN CITY    CLOUDY    32  28  85 S20G28    29.85F WCI  20
GREAT BEND     CLOUDY    30  19  64 S16       30.00F WCI  19
LIBERAL        CLOUDY    34  28  80 S13       29.91F WCI  25
$$

KSZ066>073-081>083-090>101-030200-
SOUTHEAST KANSAS

CITY           SKY/WX    TMP DP  RH WIND       PRES   REMARKS
CHANUTE        CLOUDY    34  27  75 SE8       30.15F
COFFEYVILLE    CLOUDY    35  28  75 S7        30.17F
HUTCHINSON     CLOUDY    33  25  72 S15       30.07F WCI  23
MEDICINE LODGE   N/A     32  25  75 SE9       30.04F
NEWTON         CLOUDY    30  25  80 S14       30.09F WCI  20
PARSONS        CLOUDY    35  27  72 SE5       30.17F
WICHITA INTL   CLOUDY    32  26  78 S13       30.10F WCI  22
WICHITA JABRA  CLOUDY    31  28  89 S10       30.09F WCI  22
WINFIELD       CLOUDY    32  30  92 S7        30.14F FOG
$$

KSZ007>012-019>026-033>040-048>060-102>105-030200-
NORTHEAST KANSAS

CITY           SKY/WX    TMP DP  RH WIND       PRES   REMARKS
CONCORDIA      CLOUDY    32  19  58 SE16      30.03F WCI  21
EMPORIA        CLOUDY    32  24  72 SE9       30.12F
LAWRENCE       CLOUDY    34  22  61 SE9       30.17F
MANHATTAN      CLOUDY    34  21  59 S10       30.11F WCI  26
OLATHE IND     CLOUDY    33  23  66 SE9       30.17S
OLATHE EXE     CLOUDY    33  21  61 SE8       30.16F
SALINA         CLOUDY    34  22  61 SE10      30.07F WCI  26
TOPEKA BILLARD CLOUDY    34  21  59 SE13      30.13F WCI  25
TOPEKA FORBES  CLOUDY    34  22  61 SE12      30.10F WCI  25
$$



USA.gov is the U.S. government's official web portal to all federal, state and local government web resources and services.